National Weather Service Raw Text Product

Displaying AFOS PIL: RWRIA Received: 2018-07-12 10:00 UTC


555 
ASUS43 KDMX 121006
RWRIA 

WEATHER ROUNDUP FOR IOWA
NATIONAL WEATHER SERVICE DES MOINES IA
500 AM CDT THU JUL 12 2018

NOTE: "FAIR" INDICATES FEW OR NO CLOUDS BELOW 12,000 FEET WITH NO
SIGNIFICANT WEATHER AND/OR OBSTRUCTIONS TO VISIBILITY.

* - THESE STATIONS ARE NOT NWS STATIONS...THUS NOT UNDER NWS
QUALITY CONTROL.  THEY ALSO DO NOT REPORT WEATHER SUCH 
AS PRECIPITATION OR FOG.  

IAZ001>003-012>014-020>022-031>034-043>046-121100-
   NORTHWEST IOWA
  
CITY           SKY/WX    TMP DP  RH WIND       PRES   REMARKS
CARROLL *      PTCLDY    73  70  88 S8        30.01F                  
CHEROKEE *     CLEAR     75  72  89 S8        29.98S                  
DENISON *      CLEAR     75  70  83 S8G14     30.02F                  
LE MARS *      CLEAR     75  72  88 S8        29.96R                  
ORANGE CITY *  CLEAR     75  72  88 S6        29.97S                  
SHELDON *      CLEAR     73  73 100 S7        29.95S                  
SIOUX CITY     CLEAR     76  71  85 S8        29.96S                  
STORM LAKE *   CLEAR     73  72  94 S9        30.00S                  
$$
 
IAZ055>058-069>071-079>083-090>094-121100-
   SOUTHWEST IOWA
  
CITY           SKY/WX    TMP DP  RH WIND       PRES   REMARKS
ATLANTIC *     CLEAR     75  70  83 S6        30.03S                  
AUDUBON *      CLEAR     75  70  83 S5        30.05S                  
CLARINDA *     CLEAR     72  68  88 S6        30.06S                  
COUNCIL BLFS * CLEAR     73  70  88 SE7       30.02S                  
CRESTON *      CLEAR     72  64  78 S9        30.07F                  
HARLAN  *        N/A     75  70  83 S7        30.03S                  
LAMONI         CLEAR     72  61  68 SE6       30.07F                  
RED OAK *      CLEAR     75  70  83 S6        30.03F                  
SHENANDOAH *   CLEAR     73  70  88 CALM      30.03S                  
$$
 
IAZ047>049-059>061-072>074-084-121100-
   CENTRAL IOWA
  
CITY           SKY/WX    TMP DP  RH WIND       PRES   REMARKS
AMES           PTCLDY    70  64  81 S5        30.04F                  
ANKENY *       CLEAR     73  61  64 S5G12     30.05F                  
BOONE *        CLEAR     73  64  73 S6        30.04S                  
CHARITON *     PTCLDY    70  63  78 S9        30.06F                  
DES MOINES     PTCLDY    74  62  66 S10       30.04F                  
GRINNELL*      CLEAR     69  63  81 S3        30.08S                  
KNOXVILLE *    CLEAR     72  63  73 S7        30.05S                  
MARSHALLTOWN   CLEAR     71  65  81 S10       30.05S                  
NEWTON *       CLEAR     68  64  88 S7        30.06F                  
PELLA *        CLEAR     71  63  74 S7        30.07F                  
PERRY *        FAIR      72  69  90 MISG      30.04S                  
$$
 
IAZ004>006-015-016-023>025-035-036-121100-
   NORTH CENTRAL IOWA
  
CITY           SKY/WX    TMP DP  RH WIND       PRES   REMARKS
ALGONA *       CLEAR     75  66  73 S15       30.00S                  
CLARION *      PTCLDY    73  64  73 S13       30.02S                  
ESTHERVILLE    CLEAR     73  70  90 S12       29.97F                  
FORT DODGE *   CLEAR     76  66  71 S14       30.01F                  
MASON CITY     CLEAR     71  64  78 S9        30.04R                  
FOREST CITY *  FAIR      72  64  78 S7        30.02R                  
WEBSTER CITY * CLEAR     73  64  73 S12       30.00F                  
IOWA FALLS *   FAIR      71  64  78 S8        30.05F                  
$$

IAZ007>011-017>019-026>030-037>042-050>054-066-121100-
   NORTHEAST IOWA
  
CITY           SKY/WX    TMP DP  RH WIND       PRES   REMARKS
CEDAR RAPIDS   FAIR      69  67  93 S8        30.08S                  
CHARLES CITY * MOCLDY    70  64  83 S9        30.06R                  
CLINTON *      FAIR      67  65  93 SE3       30.12R                  
DECORAH *      CLOUDY    72  66  83 S8        30.05F                  
DUBUQUE        FAIR      66  63  90 S7        30.11R                  
MONTICELLO *   FAIR      68  68 100 SE5       30.10R                  
OELWEIN *      FAIR      68  66  94 SE7       30.09R                  
WATERLOO       FAIR      70  65  84 S6        30.05S                  
$$
 
IAZ064-065-067-068-078-121100-
   EAST CENTRAL IOWA
  
CITY           SKY/WX    TMP DP  RH WIND       PRES   REMARKS
DAVENPORT      FAIR      69  63  81 S6        30.12S                  
IOWA CITY      FAIR      69  66  90 SE5       30.11R                  
MUSCATINE *      N/A     66  64  94 CALM      30.10R                  
QUAD CITIES    FAIR      70  65  84 SE6       30.09S                  
$$
 
IAZ062-063-075>077-085>089-095>099-121100-
   SOUTHEAST IOWA
  
CITY           SKY/WX    TMP DP  RH WIND       PRES   REMARKS
BURLINGTON     CLEAR     72  67  84 S9        30.09F                  
FAIRFIELD *    CLEAR     70  64  83 S7        30.08S                  
FORT MADISON * CLEAR     72  68  88 S6        30.10F                  
KEOKUK *       CLEAR     72  68  88 S6        30.09S                  
OSKALOOSA *    FAIR      67  64  89 S8        30.08S                  
CENTERVILLE *    N/A     68  64  88 CALM      30.09F                  
OTTUMWA        CLEAR     71  65  81 S9        30.07F                  
WASHINGTON *   CLEAR     68  68 100 SE6       30.10R                  
$$

ABBREVIATIONS USED IN REMARKS
   TC - TEMPERATURES IN CELSIUS
  WCI - WIND CHILL INDEX
   HX - HEAT INDEX
  VSB - VISIBILITY  
$$

  

323 
ASUS43 KDMX 121001
RWRIA 

WEATHER ROUNDUP FOR IOWA
NATIONAL WEATHER SERVICE DES MOINES IA
500 AM CDT THU JUL 12 2018

NOTE: "FAIR" INDICATES FEW OR NO CLOUDS BELOW 12,000 FEET WITH NO
SIGNIFICANT WEATHER AND/OR OBSTRUCTIONS TO VISIBILITY.

* - THESE STATIONS ARE NOT NWS STATIONS...THUS NOT UNDER NWS
QUALITY CONTROL.  THEY ALSO DO NOT REPORT WEATHER SUCH 
AS PRECIPITATION OR FOG.  

IAZ001>003-012>014-020>022-031>034-043>046-121100-
   NORTHWEST IOWA
  
CITY           SKY/WX    TMP DP  RH WIND       PRES   REMARKS
CARROLL *      PTCLDY    73  70  88 S8        30.01F                  
CHEROKEE *     CLEAR     75  72  89 S8        29.98S                  
DENISON *      CLEAR     75  70  83 S8G14     30.02F                  
LE MARS *      CLEAR     75  72  88 S8        29.96R                  
ORANGE CITY *  CLEAR     75  72  88 S6        29.97S                  
SHELDON *      CLEAR     73  73 100 S7        29.95S                  
SIOUX CITY     CLEAR     76  71  85 S8        29.96S                  
STORM LAKE *   CLEAR     73  72  94 S9        30.00S                  
$$
 
IAZ055>058-069>071-079>083-090>094-121100-
   SOUTHWEST IOWA
  
CITY           SKY/WX    TMP DP  RH WIND       PRES   REMARKS
ATLANTIC *     CLEAR     75  70  83 S6        30.03S                  
AUDUBON *      CLEAR     75  70  83 S5        30.05S                  
CLARINDA *     CLEAR     72  68  88 S6        30.06S                  
COUNCIL BLFS * CLEAR     73  70  88 SE7       30.02S                  
CRESTON *      CLEAR     72  64  78 S9        30.07F                  
HARLAN  *        N/A     75  70  83 S7        30.03S                  
LAMONI         CLEAR     72  61  68 SE6       30.07F                  
RED OAK *      CLEAR     75  70  83 S6        30.03F                  
SHENANDOAH *   CLEAR     73  70  88 CALM      30.03S                  
$$
 
IAZ047>049-059>061-072>074-084-121100-
   CENTRAL IOWA
  
CITY           SKY/WX    TMP DP  RH WIND       PRES   REMARKS
AMES           PTCLDY    70  64  81 S5        30.04F                  
ANKENY *       CLEAR     73  61  64 S5G12     30.05F                  
BOONE *        CLEAR     73  64  73 S6        30.04S                  
CHARITON *     PTCLDY    70  63  78 S9        30.06F                  
DES MOINES     PTCLDY    74  62  66 S10       30.04F                  
GRINNELL*      CLEAR     69  63  81 S3        30.08S                  
KNOXVILLE *    CLEAR     72  63  73 S7        30.05S                  
MARSHALLTOWN   CLEAR     71  65  81 S10       30.05S                  
NEWTON *       CLEAR     68  64  88 S7        30.06F                  
PELLA *        CLEAR     71  63  74 S7        30.07F                  
PERRY *        FAIR      72  69  90 MISG      30.04S                  
$$
 
IAZ004>006-015-016-023>025-035-036-121100-
   NORTH CENTRAL IOWA
  
CITY           SKY/WX    TMP DP  RH WIND       PRES   REMARKS
ALGONA *       CLEAR     75  66  73 S15       30.00S                  
CLARION *      PTCLDY    73  64  73 S13       30.02S                  
ESTHERVILLE    CLEAR     73  70  90 S12       29.97F                  
FORT DODGE *   CLEAR     76  66  71 S14       30.01F                  
MASON CITY     CLEAR     71  64  78 S9        30.04R                  
FOREST CITY *  FAIR      72  64  78 S7        30.02R                  
WEBSTER CITY * CLEAR     73  64  73 S12       30.00F                  
IOWA FALLS *   FAIR      71  64  78 S8        30.05F                  
$$

IAZ007>011-017>019-026>030-037>042-050>054-066-121100-
   NORTHEAST IOWA
  
CITY           SKY/WX    TMP DP  RH WIND       PRES   REMARKS
CEDAR RAPIDS   FAIR      69  67  93 S8        30.08S                  
CHARLES CITY * MOCLDY    70  64  83 S9        30.06R                  
CLINTON *      FAIR      67  65  93 SE3       30.12R                  
DECORAH *      CLOUDY    72  66  83 S8        30.05F                  
DUBUQUE        FAIR      66  63  90 S7        30.11R                  
MONTICELLO *   FAIR      68  68 100 SE5       30.10R                  
OELWEIN *      FAIR      68  66  94 SE7       30.09R                  
WATERLOO       FAIR      70  65  84 S6        30.05S                  
$$
 
IAZ064-065-067-068-078-121100-
   EAST CENTRAL IOWA
  
CITY           SKY/WX    TMP DP  RH WIND       PRES   REMARKS
DAVENPORT      FAIR      69  63  81 S6        30.12S                  
IOWA CITY      FAIR      69  66  90 SE5       30.11R                  
MUSCATINE *      N/A     66  64  94 CALM      30.10R                  
QUAD CITIES    FAIR      70  65  84 SE6       30.09S                  
$$
 
IAZ062-063-075>077-085>089-095>099-121100-
   SOUTHEAST IOWA
  
CITY           SKY/WX    TMP DP  RH WIND       PRES   REMARKS
BURLINGTON     CLEAR     72  67  84 S9        30.09F                  
FAIRFIELD *    CLEAR     70  64  83 S7        30.08S                  
FORT MADISON * CLEAR     72  68  88 S6        30.10F                  
KEOKUK *       CLEAR     72  68  88 S6        30.09S                  
OSKALOOSA *    FAIR      67  64  89 S8        30.08S                  
CENTERVILLE *    N/A     68  64  88 CALM      30.09F                  
OTTUMWA        CLEAR     71  65  81 S9        30.07F                  
WASHINGTON *   CLEAR     68  68 100 SE6       30.10R                  
$$

ABBREVIATIONS USED IN REMARKS
   TC - TEMPERATURES IN CELSIUS
  WCI - WIND CHILL INDEX
   HX - HEAT INDEX
  VSB - VISIBILITY  
$$